Challenge de la Province du Hainaut

Le Jogging Des Ruelles De La Bourlette - Anderlues (8.17 km)

Du 5 mars au 14 mars 2021

Vous pouvez trouver Le classement original sur : http://www.challengehainaut.be
CHALLENGE DE LA PROVINCE DU HAINAUT
LE JOGGING DES RUELLES DE LA BOURLETTE - ANDERLUES
DISTANCE 8.17 km
Du 5 mars au 14 mars 2021
 
Place NOM Temps Temps/km Vitesse
01:00:00        
1 STEVE COPPIN 0:29:29 03:37 16.62
2 FRANÇOIS LECOLLEY 0:29:40 03:38 16.52
3 CEDRIC PASQUE 0:30:05 03:41 16.29
4 JEROME LIMELETTE 0:30:57 03:47 15.84
5 LAURENT DUPUIS 0:31:08 03:49 15.74
6 RICARDO DOS MONTEIRO 0:31:22 03:50 15.62
7 FRANCOIS LHEUREUX 0:31:29 03:51 15.57
8 NATHAN GHYSELS 0:32:01 03:55 15.31
9 SAIDALYSON BOLHANDIA ROSSI 0:33:00 04:02 14.85
10 BENJAMIN BIETTLOT 0:33:00 04:02 14.85
11 FRANCISCO RISO 0:33:16 04:04 14.73
12 PIERRE FITDEVOIE 0:33:25 04:05 14.67
13 PHILIPPE GOUVERNEUR 0:33:28 04:06 14.64
14 PHILIPPE DEJARDIN 0:34:03 04:10 14.39
15 FRANÇOIS EMPAIN 0:34:15 04:12 14.31
16 FRANÇOIS LEJEUNE 0:34:24 04:13 14.25
17 JÉRÉMIE DECK 0:34:38 04:14 14.15
18 DAVID DEWULF 0:34:41 04:15 14.13
19 CEDRIC TEMMERMAN 0:34:49 04:16 14.08
20 NAGY VINCENT 0:34:52 04:16 14.06
21 YANN BLAIRON 0:34:56 04:17 14.03
22 JEROME MASUT 0:35:03 04:17 13.98
23 PAUL HADJ 0:35:25 04:20 13.84
24 QUENTIN PRÉAUX 0:35:47 04:23 13.70
25 ALLAN MARINO 0:36:14 04:26 13.53
26 MATHIAS MEULEMANS 0:36:14 04:26 13.53
27 RUDY DEVLEESCHAWER 0:36:20 04:27 13.49
28 JOHN FARAUCHE 0:36:21 04:27 13.48
29 DAMIEN BOECKMANS 0:36:22 04:27 13.48
30 NICOLAS GUERLEMENT 0:36:36 04:29 13.39
31 PIERRE BATAILLE 0:36:42 04:30 13.35
32 STEVE VANKERKEM 0:36:50 04:31 13.31
33 SYLVIE WAUQUIER 0:36:50 04:31 13.31
34 CHRISTOPHE CLARA 0:37:01 04:32 13.24
35 MICHAEL ALCOVER 0:37:10 04:33 13.19
36 JÉRÔME SANDRON 0:37:13 04:33 13.17
37 F WANCQUER 0:37:15 04:34 13.16
38 PHILIPPE THIRION 0:37:17 04:34 13.15
39 VINCENT DOUDELET 0:37:19 04:34 13.13
40 VALÉRIE VRAY 0:37:29 04:35 13.08
41 ARNAUD REMY 0:37:41 04:37 13.01
42 JOHAN DE MOOY 0:37:55 04:39 12.93
43 PHILIPPE DUCHEMIN 0:38:00 04:39 12.90
44 ANTONIO GALLUCCIO 0:38:00 04:39 12.90
45 DAMIEN DECK 0:38:07 04:40 12.86
46 GAETAN DE ROSSEIGNIES 0:38:08 04:40 12.85
47 JORIS DECK 0:38:10 04:40 12.84
48 ANTHONY BOURDEAUD'HUI 0:38:11 04:40 12.84
49 JULIEN VERSTRAETEN 0:38:28 04:43 12.74
50 CLAUDE LENNE 0:38:39 04:44 12.68
51 GEOFFREY HEULERS 0:38:39 04:44 12.68
52 VINCENT BOTINATOR 0:38:41 04:44 12.67
53 PATRICK NICAISE 0:38:53 04:46 12.60
54 LUC SANTOS MARQUES 0:38:55 04:46 12.59
55 PHILIPPE DESOMBERG 0:38:58 04:46 12.58
56 MATHIEU BOUDART 0:39:01 04:47 12.56
57 SEVERINE DESHAYES 0:39:04 04:47 12.55
58 XAVIER DENUIT 0:39:08 04:47 12.52
59 ALAIN NÉMETH 0:39:27 04:50 12.42
60 SALVATORE BELLANTE 0:39:27 04:50 12.42
61 CHRISTOPHE DUPONT 0:39:32 04:50 12.40
62 DAVID RIGON 0:39:38 04:51 12.37
63 JULIEN BAUDUIN 0:39:57 04:53 12.27
64 ELZO BAUDUIN 0:39:57 04:53 12.27
65 FRANK POELAERT 0:39:59 04:54 12.26
66 DAVID CASAGRANDE 0:40:02 04:54 12.24
67 FRED GHYSELS 0:40:14 04:56 12.18
68 JEAN-PIERRE KINDERMANS 0:40:25 04:57 12.13
69 JEAN CLAUDE HARVENT 0:40:31 04:58 12.10
70 DIEGO BOLOGNESE 0:40:32 04:58 12.09
71 NATACHA BOUILLON 0:40:43 04:59 12.04
72 LORENZO DI PISA 0:41:01 05:01 11.95
73 KEVIN ATATY 0:41:14 05:03 11.89
74 PIERRE GAGLIARDI 0:41:16 05:03 11.88
75 LOUIS PINGOT 0:41:27 05:04 11.82
76 ROMAIN MESTRE 0:41:38 05:06 11.77
77 THIERRY DOLHEN 0:41:38 05:06 11.77
78 ROBERTO MUSINA 0:41:48 05:07 11.73
79 MICHEL HEMERYCK 0:41:49 05:07 11.72
80 ANTHONY WERY 0:41:51 05:07 11.72
81 CAROLINE LEJEUNE 0:42:00 05:08 11.67
82 LAURENT BLAIRON 0:42:04 05:09 11.66
83 CORENTIN GUYOT 0:42:05 05:09 11.65
84 MATHIEU STOCK 0:42:07 05:09 11.64
85 NICOLAS TRAPANI 0:42:10 05:10 11.63
86 GABRIEL RODRIGUEZ 0:42:14 05:10 11.61
87 SABRINA DE NIZZA 0:42:18 05:11 11.59
88 LUC HOYOIS 0:42:18 05:11 11.59
89 AUDREY MAYENCE 0:42:18 05:11 11.59
90 VINCENT NOKERMAN 0:42:21 05:11 11.58
91 ARIELLE ODY 0:42:36 05:13 11.51
92 AXEL DEVOS 0:42:42 05:14 11.48
93 SANDRINE MENTIA 0:42:44 05:14 11.47
94 SEBASTIEN DE VREESE 0:42:53 05:15 11.43
95 FANNY PARMENTIER 0:42:55 05:15 11.42
96 BORIS DEPRE 0:42:56 05:15 11.42
97 MARIO MANDINO 0:43:02 05:16 11.39
98 STANNY BAILLY 0:43:07 05:17 11.37
99 ALLAN HAINAUT 0:43:08 05:17 11.37
100 LAURENCE TONDEUR 0:43:13 05:17 11.34
101 MARIE LESSAGE 0:43:13 05:17 11.34
102 PASCALE BRIDOUX 0:43:15 05:18 11.34
103 BENOÎT DE CONINCK 0:43:16 05:18 11.33
104 PAUL TITART 0:43:16 05:18 11.33
105 FRÉDÉRIC MONTELEONE 0:43:24 05:19 11.30
106 VINCENT INGRASCI 0:43:27 05:19 11.28
107 LAURA LEYMAN 00:43:43 05:21 11.22
108 MARC COTON 0:43:46 05:21 11.20
109 DANNY PILETTE 0:43:49 05:22 11.19
110 JOHN REDWOOD 0:43:51 05:22 11.18
111 ANNICK COURBET 0:43:51 05:22 11.18
112 VERONIQUE GUERIN 0:43:52 05:22 11.18
113 STÉPHANE BURGEON 0:43:52 05:22 11.18
114 DAVID DOYEN 0:43:53 05:22 11.17
115 MAXIME DOYEN 0:43:54 05:22 11.17
116 CÉDRIC VAN DE PLAS 0:43:54 05:22 11.17
117 GUY DETROZ 0:44:01 05:23 11.14
118 PASCAL FLAMME 0:44:03 05:23 11.13
119 JULIEN ADANT 0:44:11 05:24 11.10
120 DELPHINE COLLARD 0:44:31 05:27 11.01
121 SARAH LEGRAIE 0:44:33 05:27 11.01
122 NICOLAS BERTAGNE 0:44:33 05:27 11.01
123 KEVIN ROLAND 0:44:39 05:28 10.98
124 MICHAEL BODDEN 0:44:41 05:28 10.97
125 FLORAN DEMANET 0:44:47 05:29 10.95
126 KEVIN SCHOLLAERT 0:44:53 05:30 10.92
127 MÉDÉRIC THOMAS 0:44:58 05:30 10.90
128 RENATO CASSANO 0:45:00 05:30 10.90
129 EMILIANO SCELSO 0:45:03 05:31 10.88
130 PHILIPPE LANNOO 0:45:05 05:31 10.88
131 MARCHANT PAULINE 0:45:08 05:31 10.86
132 LEGAT FRÉD 0:45:10 05:32 10.85
133 JÉRÉMIE PARMENTIER 0:45:10 05:32 10.85
134 ALFINO BUTTICE 0:45:31 05:34 10.77
135 LIDIANA BRUSADELLI 0:45:40 05:35 10.74
136 ALEX LANCKRIET 0:45:48 05:36 10.70
137 MADISON POTY 0:45:49 05:36 10.70
138 ALAIN POTY 0:45:49 05:36 10.70
139 ALAIN GORNIAK 0:45:49 05:36 10.70
140 PHILIPPE SMETS 0:46:06 05:39 10.64
141 GILLES COLAERT 0:46:21 05:40 10.58
142 STÉPHANIE BUYLE 0:46:25 05:41 10.56
143 DORIANE JACQUARD 0:46:25 05:41 10.56
144 NANCY DELHELLE 0:46:26 05:41 10.56
145 VÉRONIQUE VERSPECHT 0:46:26 05:41 10.56
146 GERALDINE D'HALLEWIN 0:46:29 05:41 10.55
147 JULIEN LELOUX 0:46:41 05:43 10.50
148 ALAIN HOPPEN 0:46:44 05:43 10.49
149 CHRISTINE COLUSSI 0:46:44 05:43 10.49
150 CECILE DIONGRE 0:46:46 05:43 10.48
151 CAROLINE CANTA 0:47:13 05:47 10.38
152 LAETITIA VANDER EYDEN 0:47:15 05:47 10.38
153 MARYLENE DELAHAUTEMAISON 0:47:17 05:47 10.37
154 SEBASTIEN DURANT 0:47:18 05:47 10.37
155 ALBERT VINCENT 0:47:34 05:49 10.31
156 WILLIAM PLUMET 0:47:40 05:50 10.29
157 ALAIN ROCHET 0:47:47 05:51 10.26
158 CHRISTOPHE PILATE 0:47:51 05:51 10.25
159 CHRISTIAN PRAIL 0:47:56 05:52 10.23
160 MARC DELCAMPE 0:48:01 05:53 10.21
161 CARLO CROCI 0:48:01 05:53 10.21
162 MURIEL COCHEZ 0:48:04 05:53 10.20
163 THOMAS FERRARI 0:48:20 05:55 10.14
164 CLAUDE SCHOONHEYT 0:48:28 05:56 10.12
165 THOMAS BASTIN 0:48:49 05:58 10.04
166 DANIEL VAN DAMME 0:48:51 05:59 10.04
167 FRANCISCO RISO 0:48:52 05:59 10.03
168 ROBERTO HENDRICK 0:48:52 05:59 10.03
169 CHANTAL GILMONT 0:48:57 05:59 10.02
170 JEAN-MARIE DUMOULIN 0:49:19 06:02 9.94
171 JOHAN LELOUX 0:49:19 06:02 9.94
172 JEAN BENOÎT GHISLAIN 0:49:37 06:04 9.88
173 MURIEL LEONI 0:49:38 06:04 9.88
174 MICHAEL COURCELLES 0:49:38 06:04 9.88
175 SÉBASTIEN FITDEVOIE 0:49:53 06:06 9.83
176 GRÉGORY CLAUSTRIAUX 0:49:54 06:06 9.82
177 SHADIA MUTONI 0:50:04 06:08 9.79
178 EMMANUELLE SALBATER 0:50:05 06:08 9.79
179 CÉLINE FOURDRAIN 0:50:08 06:08 9.78
180 BARBARA TERZINI 0:50:16 06:09 9.75
181 FRANÇOISE LARDENOEY 0:50:29 06:11 9.71
182 ETIENNE VAN HONACKER 0:50:30 06:11 9.71
183 EMMANUELLE VANDERAA 0:50:34 06:11 9.70
184 PY HENDRICKX 0:50:38 06:12 9.68
185 JEAN-MARC VANDERAA 0:50:39 06:12 9.68
186 AMBRE POELAERT 0:50:40 06:12 9.68
187 CHRISTEL CAUFRIEZ 0:50:53 06:14 9.64
188 SARAH VERRIEST 0:50:53 06:14 9.64
189 DAMIEN VLEGELS 0:51:13 06:16 9.57
190 FABIAN VANDERCAM 00:51:19 06:17 9.55
191 IOURI VANDERCAM 00:51:20 06:17 9.55
192 QUENTIN NAVEZ 00:51:45 06:20 9.47
193 MICHELLE LESOIL 00:52:06 06:23 9.41
194 JOCELYNE PATER 00:52:15 06:24 9.38
195 ELSA BELLANTE 00:52:18 06:24 9.37
196 JEAN-LUC MARIEN 00:52:34 06:26 9.33
197 FRANCOIS GOFFE 00:52:38 06:26 9.31
198 MANON DE PREZ 00:52:40 06:27 9.31
199 ISABELLE DIET 00:52:45 06:27 9.29
200 GUILLAUME HSN 00:52:46 06:27 9.29
201 ELISE SCARNIET 00:52:47 06:28 9.29
202 AUDREY GUYAN 00:52:47 06:28 9.29
203 CAROLL POLLÉ 00:53:05 06:30 9.24
204 LUCIE SEPTON 00:53:09 06:30 9.22
205 ANGELO DI GIUSEPPE 00:53:12 06:31 9.22
206 GAËTANO DRAGOTTA 00:53:15 06:31 9.21
207 EDITH JOUE 00:53:21 06:32 9.19
208 SANDRINE CASTIEAU 00:53:21 06:32 9.19
209 WEN LOCOCQ 00:53:22 06:32 9.19
210 OLIVIER HUART 00:53:25 06:32 9.18
211 FRANCES JANUTH 00:53:37 06:34 9.14
212 CHRISTOPHE VERBAUWHÈDE 00:53:41 06:34 9.13
213 VINCENT MAERTENS 00:53:53 06:36 9.10
214 MARJORIE GILMONT 00:53:56 06:36 9.09
215 SOPHIE SCHOONHEYT 00:54:06 06:37 9.06
216 ADELINE LEUCKX 00:54:10 06:38 9.05
217 JULIEN VILERS 00:54:11 06:38 9.05
218 ZA BLGHO 00:54:21 06:39 9.02
219 FEMKE DE LUYCK 00:54:35 06:41 8.98
220 PHILIPPE VANCUTSEM 00:55:03 06:44 8.91
221 THOMAS MAGNÉ 00:55:06 06:45 8.90
222 ISABELLE SPRIMONT 00:55:17 06:46 8.87
223 MARIKA SIRKO 00:55:27 06:47 8.84
224 SOPHIE SZYMKOWICZ 00:55:39 06:49 8.81
225 CINDY WAVREILLE 00:55:49 06:50 8.78
226 VIRGINIE DETTORI 00:55:50 06:50 8.78
227 MARYLINE DELPIERRE 00:55:53 06:50 8.77
228 LÉA SCAILLET 00:56:02 06:51 8.75
229 FLORENCE NUYTTEN 00:56:10 06:52 8.73
230 ALAIN PIRET 00:56:37 06:56 8.66
231 VALENTINE WBR 00:56:43 06:56 8.64
232 STÉPHANIE GLOTZ 00:56:46 06:57 8.64
233 FRANCA ARTONE 00:56:46 06:57 8.64
234 EVE MESTRE 00:56:49 06:57 8.63
235 GILLES MESTRE 00:56:49 06:57 8.63
236 ISABELLE RENARD 00:56:49 06:57 8.63
237 KRYSTELLE BAUDUIN 00:56:51 06:57 8.62
238 ALEXANDRA SCK 00:56:54 06:58 8.62
239 THOMAS SÉVÉRINO 00:56:56 06:58 8.61
240 NINA SELLONI 00:57:13 07:00 8.57
241 CHRISTIAN MAES 00:57:27 07:02 8.53
242 VIRGINIE DELSINNE 00:58:08 07:07 8.43
243 VERONIQUE CARLIER 00:58:12 07:07 8.42
244 JÉRÉMY HAMAIDE 00:58:13 07:08 8.42
245 ALAIN POURTOIT 00:58:22 07:09 8.40
246 BRUNO MAX 00:58:27 07:09 8.39
247 BERNADETTE GLINNE 00:58:30 07:10 8.38
248 THÉRÈSE FERAIN 00:59:33 07:17 8.23
249 BÉRANGÈRE MAHIA 00:59:44 07:19 8.21
250 ENRICO PERUGINI 00:59:46 07:19 8.20
251 FABIENNE LERMOYEUX 00:59:49 07:19 8.20
252 BENEDICTE WARIN 00:59:49 07:19 8.20
253 CÉCILE MEURÉE 00:59:50 07:19 8.19
254 BERNARDINO ARTONE 01:00:36 07:25 8.09
255 ZUBEYDA KURTAL 01:00:39 07:25 8.08
256 FARKAS PETER 01:00:49 07:27 8.06
257 ANN-CATHERINE DOSIMONT 01:01:22 07:31 7.99
258 ESTELLE LBT 01:01:47 07:34 7.93
259 LIRYANA STOLLA 01:01:47 07:34 7.93
260 PHILIPPE VANNOORENBERGHE 01:02:01 07:35 7.90
261 FABRICE SAROT 01:02:28 07:39 7.85
262 CHRISTINE TORFS 01:02:33 07:39 7.84
263 SONIA FOLADORI 01:02:36 07:40 7.83
264 LAURENCE MICHEL 01:02:45 07:41 7.81
265 EMILIE ROLAND 01:02:46 07:41 7.81
266 AMELIE ROLAND 01:02:54 07:42 7.79
267 GEORGES VAN HECKE 01:03:01 07:43 7.78
268 PHILIPPE ROLAND 01:03:07 07:43 7.77
269 CHRISTEL DUBOIS 01:04:07 07:51 7.65
270 ENRIQUE IGLESIAS 01:04:07 07:51 7.65
271 MAUD BIZET 01:04:09 07:51 7.64
272 CHRISTIANE DANIEL 01:04:14 07:52 7.63
273 FABIENNE ANIQUE 01:05:16 07:59 7.51
274 OLIVIER DESSART 01:05:45 08:03 7.46
275 KARIN DE GEEST 01:08:17 08:21 7.18
276 LYDIA PIRSON 01:09:44 08:32 7.03
277 NATHALIE DE GREGORIO 01:11:19 08:44 6.87
278 MICHEL LEROY 01:11:40 08:46 6.84
279 YVON DOYEN 01:14:32 09:07 6.58
280 LESLY TOUSSAINT 01:14:53 09:10 6.55
281 PAULETTE LEROY 01:15:23 09:14 6.50
282 CATHERINE FUMIERE 01:20:02 09:48 6.12
283 SERGE WOLF 21 01:27:42 10:44 5.59
284 PIERRE BILLOT 01:45:01 12:51 4.67
285 JOELLE VAN DEN ELSEN 01:47:41 13:11 4.55
286 PATRICIA WUYTS 01:48:26 13:16 4.52
287 EUSTACHE LOUVIAUX 01:55:01 14:05 4.26
288 NELLY BAUDOUX 01:55:01 14:05 4.26